SES-15

Last updated on Wed Jul 02 2025 00:02:47 GMT+0000 (Coordinated Universal Time)

1 42709U 17026A 25182.54164654 .00000064 00000+0 00000+0 0 9999 2 42709 0.0197 22.6207 0001058 350.9461 332.0647 1.00265956 3925
UTC large
Height (km)
Speed (km/s)
/
Latitude / Longitude
Inclination (degrees)
Orbital Period (minutes)
Azimuth
Elevation
Range (km)
Doppler Factor

Next 0 passes for location: London (51.5072 / 0.1276)

Sorry there are no passes over London.